Wind_Speed
14 14 13 12 10 10 9 9 10 10 8 8 8 7 7 7 7 8 12 11 8 5 4 5 7 6 7 7 7 7 7 8 9 10 10 10 10 9 9 8 7 7 5 5 7 7 10 16 17 14 14 15 15 15 16 16 14 13 12 12 11 9 9
15 14 13 12 10 10 11 11 10 10 9 9 9 9 8 7 6 9 14 13 10 8 6 7 6 6 7 7 7 8 8 9 11 11 12 13 13 12 12 11 10 10 8 6 7 7 10 16 16 14 14 16 18 19 19 19 16 13 12 12 12 10 8
14 13 12 11 11 11 11 11 10 8 10 11 11 11 10 9 9 10 13 12 11 10 9 9 8 9 10 9 9 10 10 10 11 13 13 13 13 12 10 10 9 9 10 9 8 9 12 14 15 14 14 17 21 20 19 20 18 14 12 12 13 12 10
15 14 12 11 12 13 11 9 8 7 9 11 12 11 10 11 11 12 12 12 13 12 11 11 10 11 11 11 11 11 11 10 10 12 14 13 13 13 12 11 10 9 10 10 10 11 14 16 17 16 15 18 21 21 18 16 16 16 13 12 13 14 14
16 14 12 11 12 13 11 10 10 9 8 10 11 10 10 10 11 12 12 13 14 13 12 11 10 10 11 12 11 11 11 11 11 13 15 15 15 15 15 12 11 13 12 11 11 14 16 18 18 18 17 17 19 21 18 15 15 16 14 12 11 12 13
16 13 11 12 12 13 13 12 11 10 10 10 10 10 10 10 10 10 10 11 13 13 14 13 11 10 10 11 11 12 12 12 13 13 14 16 16 15 15 14 13 15 13 11 12 16 16 18 19 18 15 16 20 22 20 18 16 15 14 11 9 8 10
15 13 14 14 14 13 13 12 11 11 10 10 10 10 9 9 8 9 9 10 10 11 13 14 13 11 9 10 12 12 14 13 13 13 13 15 16 15 13 14 16 16 13 11 12 13 12 14 16 14 15 18 21 21 19 17 16 14 13 8 5 6 8
16 15 15 15 15 14 13 13 12 12 11 11 10 9 8 9 9 10 11 11 11 11 12 13 13 12 11 13 14 14 15 16 15 15 15 15 17 16 13 13 15 15 14 13 13 12 11 12 12 10 14 17 18 19 17 15 14 13 11 7 3 4 6
17 17 16 16 15 15 15 15 13 12 12 12 11 10 10 11 12 12 13 13 14 13 13 13 14 13 13 14 14 14 15 15 16 16 16 17 17 16 14 13 13 14 14 15 16 15 14 14 11 8 11 14 16 18 17 15 14 12 10 7 5 3 4
17 17 17 17 16 16 16 15 14 14 13 12 12 12 13 14 13 14 14 14 14 14 14 13 14 14 13 13 14 14 14 14 15 15 15 16 17 16 14 14 14 14 12 14 16 16 14 12 9 8 11 11 12 16 18 17 15 12 10 7 6 3 3
17 16 17 17 17 18 18 17 16 16 15 14 15 15 16 16 15 15 14 14 14 13 12 12 12 11 11 11 11 11 12 12 13 13 13 14 14 15 15 15 16 16 13 13 15 15 14 11 8 8 10 11 10 12 20 19 14 11 10 9 8 6 4
18 16 17 18 18 19 19 18 18 17 16 17 18 18 18 17 16 15 14 13 12 11 10 9 9 9 8 8 8 8 9 9 9 10 10 11 11 11 13 13 15 15 13 12 14 14 14 12 9 6 6 10 14 11 15 18 15 12 9 8 9 8 6
19 16 17 18 18 20 20 19 19 18 18 19 20 19 19 17 16 15 13 12 10 9 8 8 7 7 7 6 5 6 7 7 6 6 7 8 8 8 8 9 11 12 11 12 13 11 12 12 11 9 6 8 12 11 10 13 14 13 9 7 7 5 6
21 17 16 17 19 20 20 20 19 19 20 21 21 20 19 18 16 14 13 11 9 8 7 6 5 5 6 5 4 6 9 7 4 5 6 6 5 5 6 6 6 8 9 12 11 8 9 9 8 9 9 9 10 10 7 6 7 9 9 8 7 5 5
21 18 16 17 19 20 20 20 20 20 22 22 22 20 19 18 16 14 12 10 9 7 6 5 5 4 4 4 4 7 9 5 1 3 5 4 3 4 5 3 1 4 7 11 11 8 8 7 6 8 10 8 9 9 6 5 5 6 8 8 5 5 7
23 20 18 19 20 20 21 21 21 22 23 23 23 21 19 18 16 14 12 10 8 7 6 5 5 5 3 3 4 5 6 5 3 2 5 4 2 2 3 2 2 3 5 9 9 7 8 10 9 9 9 6 6 8 7 7 7 6 8 7 4 4 6
24 23 22 22 22 21 22 21 21 23 24 24 23 20 17 17 16 13 11 10 8 7 6 5 6 6 5 3 3 2 2 2 2 1 3 4 0 5 2 2 2 3 3 4 6 5 6 9 8 6 6 4 2 4 6 7 5 4 6 6 4 4 5
22 23 25 25 23 22 23 22 22 23 23 24 23 19 16 16 15 13 12 11 9 9 9 8 6 7 6 5 4 3 2 3 3 3 3 4 3 4 4 1 1 0 1 2 5 5 3 5 7 7 7 4 1 1 3 6 5 3 4 4 3 2 0
23 24 24 24 23 23 22 21 21 21 21 21 20 19 16 15 15 13 12 12 11 11 11 10 8 7 6 6 6 7 6 6 6 5 5 5 6 7 6 3 4 5 5 2 3 4 3 4 5 6 6 5 3 3 1 2 3 2 1 3 3 1 2
24 24 24 23 22 20 19 20 20 18 18 18 18 18 17 16 15 14 11 11 12 13 14 12 11 8 6 7 8 8 7 7 8 9 8 8 10 10 9 7 6 7 7 4 3 4 5 6 5 3 5 5 5 4 2 2 5 4 2 2 2 2 2
20 23 25 25 22 18 16 17 18 17 17 17 17 17 16 15 15 15 14 15 15 14 13 14 13 10 9 9 8 8 9 9 12 13 12 9 10 10 9 9 7 5 6 6 6 6 6 7 6 4 5 8 9 8 6 6 7 6 5 5 4 3 2
16 18 22 24 23 20 15 13 15 16 17 17 17 16 16 16 17 17 18 19 18 15 13 13 10 8 7 7 7 9 11 12 12 11 8 6 7 7 7 7 6 5 6 7 8 9 8 8 7 7 7 8 10 12 11 10 9 8 7 8 7 6 4
17 17 18 19 20 20 17 14 16 17 17 17 17 18 18 18 19 20 19 18 17 17 15 11 7 6 7 7 8 9 9 8 6 3 1 2 3 4 5 5 4 4 6 8 10 11 11 11 10 10 10 11 11 12 12 12 12 11 10 9 8 7 6
15 16 16 17 16 17 18 18 20 22 21 21 20 20 20 19 19 20 18 16 17 17 14 11 9 9 9 7 6 5 2 1 2 4 5 5 5 4 4 4 4 3 4 6 7 8 10 11 12 11 11 12 12 13 14 14 13 11 11 10 10 9 8
13 13 14 15 15 15 18 20 22 24 23 22 21 20 19 20 20 18 16 15 15 14 13 14 14 11 8 5 4 4 4 4 4 5 5 6 7 5 3 1 2 3 4 5 5 5 6 7 9 9 9 10 12 13 14 15 14 12 12 12 11 12 12
8 8 9 10 12 14 19 21 22 23 21 19 19 19 19 20 19 16 14 13 13 13 12 13 12 8 6 6 6 6 6 5 5 5 5 5 6 5 4 1 2 3 4 5 5 5 5 6 7 8 9 9 10 11 12 13 14 13 14 14 13 14 15
5 7 8 10 11 14 17 19 20 20 18 17 18 19 19 18 17 17 15 13 13 13 12 11 10 9 8 8 7 7 7 7 7 6 6 7 7 8 8 5 0 3 4 4 4 5 5 6 7 7 9 9 9 10 12 12 13 14 15 16 16 17 18
6 7 9 11 12 13 14 15 16 16 16 15 16 15 14 14 15 15 14 11 11 11 12 12 12 11 10 9 8 8 8 8 6 6 6 6 5 4 7 8 6 4 5 3 4 6 7 7 7 7 9 10 10 11 12 12 11 12 13 14 15 16 18
8 10 9 9 10 11 11 12 13 13 13 12 12 11 10 9 10 11 10 9 9 9 10 11 11 11 11 10 9 9 8 6 5 6 6 5 4 3 4 7 8 7 5 5 5 7 8 7 6 6 7 8 9 10 11 11 11 10 11 12 13 14 15
7 10 9 8 9 10 10 10 10 10 9 9 9 10 12 12 11 11 11 9 8 8 9 10 10 11 11 11 10 10 10 8 9 8 6 5 4 3 5 7 8 6 5 5 5 5 6 4 2 2 5 8 9 9 8 8 9 9 10 12 14 15 17
6 7 7 8 9 9 10 10 9 9 10 10 8 9 12 14 12 11 9 8 8 10 11 11 11 10 10 11 11 11 10 9 11 8 5 4 2 2 4 5 6 6 5 5 4 2 3 5 6 4 5 7 8 9 9 9 9 11 13 15 17 18 19
7 8 8 7 8 9 10 10 9 10 11 11 9 9 11 13 13 12 10 9 10 11 11 10 10 10 10 10 10 11 11 9 8 5 4 5 3 2 3 2 3 5 5 4 3 2 3 7 8 7 7 8 7 8 11 13 13 15 17 18 19 20 21
4 7 7 6 7 8 8 9 10 10 10 11 10 9 11 13 14 14 13 12 11 10 10 10 10 9 9 9 9 11 12 9 8 7 7 9 7 4 5 3 2 4 5 4 4 4 3 7 10 10 10 11 11 12 13 15 16 18 17 18 21 23 22
2 3 3 4 7 8 7 7 9 10 10 10 9 9 12 14 14 14 14 12 11 10 10 9 9 9 9 9 10 12 13 11 9 8 6 8 9 7 6 5 4 5 6 6 7 8 6 7 11 12 12 13 13 14 14 15 17 18 19 21 23 21 16
3 4 4 4 6 7 7 6 8 9 10 10 8 8 12 13 11 12 13 10 10 10 9 9 9 9 9 10 11 13 15 13 12 10 8 7 9 7 5 6 7 8 9 10 10 11 10 8 10 12 14 15 16 16 17 18 20 21 22 22 20 15 12
5 6 7 8 8 8 9 8 9 10 11 12 11 10 12 13 12 12 12 10 12 13 12 10 11 11 11 12 12 14 13 12 12 11 9 8 8 7 5 6 7 9 11 13 13 13 13 11 11 13 14 15 17 17 18 17 17 16 15 15 14 12 11
8 9 10 11 11 12 12 12 12 13 13 14 15 14 14 16 17 16 14 14 16 17 15 13 13 14 14 14 13 14 13 11 12 12 11 10 10 8 7 7 8 9 10 12 14 15 14 12 12 14 15 16 16 15 13 10 8 6 7 9 10 10 9
Wind_Direction
138 143 147 152 160 154 138 132 133 130 132 136 126 110 105 113 116 121 123 113 93 69 44 73 94 97 100 100 102 108 103 96 94 97 98 93 90 86 79 82 83 83 104 134 131 131 123 111 104 100 103 107 107 103 102 105 112 115 113 112 116 134 151
158 157 159 162 159 141 129 131 138 139 131 119 114 111 107 106 107 121 126 116 114 129 106 85 89 91 97 99 100 101 96 98 99 98 102 100 90 76 70 74 72 66 76 112 130 126 128 124 117 108 103 104 100 95 99 103 104 107 107 109 113 124 137
160 156 159 159 150 141 146 156 159 154 143 133 130 127 121 114 107 114 124 121 121 126 110 92 83 81 86 88 99 104 96 100 107 105 102 104 104 96 89 90 84 71 74 95 116 121 126 125 119 110 103 104 104 101 98 94 94 96 96 103 112 113 110
153 155 161 159 156 154 156 151 147 153 155 152 150 146 143 135 122 117 121 123 121 113 102 98 92 90 93 94 100 109 111 113 120 121 114 109 113 112 104 101 102 96 86 90 103 112 118 118 117 114 105 100 103 105 104 95 90 89 85 94 106 107 103
158 165 166 162 161 155 148 147 158 164 156 156 155 147 141 134 127 124 127 129 126 118 112 111 104 99 104 107 105 109 114 111 113 126 125 115 114 112 104 100 103 101 90 82 94 109 114 111 112 116 115 109 104 104 107 107 100 89 77 76 88 98 102
165 168 167 163 159 152 153 165 171 161 152 155 152 144 140 140 139 135 133 133 131 126 121 115 103 96 102 110 109 109 108 105 108 119 122 118 115 113 110 108 106 103 96 89 97 106 110 113 117 121 126 124 117 113 113 115 115 104 92 91 93 90 87
169 167 168 164 157 158 168 170 161 155 160 161 154 154 155 152 148 140 134 130 128 129 127 122 117 112 109 108 106 106 105 102 104 108 112 116 113 108 112 114 112 112 112 112 110 104 103 119 126 125 132 132 126 124 121 115 115 112 110 116 121 94 74
168 167 167 161 160 169 170 160 158 165 170 168 167 169 161 148 139 132 128 124 120 122 124 124 123 118 110 105 101 101 101 100 100 102 105 109 105 97 98 111 118 120 119 115 118 118 111 121 128 124 137 139 126 120 120 117 117 118 120 122 102 72 70
170 168 165 162 168 174 166 160 168 176 177 177 174 162 147 139 134 129 127 124 120 117 116 116 114 110 106 103 100 98 99 99 99 100 102 104 100 91 86 99 113 121 126 120 120 122 114 122 132 114 126 140 129 123 123 119 120 122 125 126 108 70 54
170 168 167 169 174 171 166 168 174 178 183 182 167 153 147 142 137 133 129 126 121 116 113 111 108 105 101 97 95 94 94 95 95 97 98 99 99 95 90 94 97 102 119 128 127 122 113 126 136 91 98 124 131 142 139 123 121 127 119 110 111 101 38
165 172 176 177 179 172 169 173 177 181 185 176 162 155 151 146 143 139 135 132 128 122 118 116 111 106 100 96 94 92 90 89 89 89 89 91 94 97 93 91 91 86 94 118 129 123 111 115 120 93 97 103 98 138 150 136 127 130 122 115 116 110 68
165 182 186 183 183 177 173 177 182 187 184 172 165 160 155 152 150 146 145 142 137 131 127 123 118 110 103 97 93 92 90 85 84 86 87 85 86 93 95 96 94 84 82 102 116 120 113 105 103 97 105 101 84 101 146 145 131 130 139 141 133 125 119
168 183 191 190 186 182 179 183 188 189 180 173 169 165 161 159 157 155 156 152 146 143 138 133 128 118 106 98 93 93 87 74 68 74 81 83 79 81 86 94 103 98 96 98 92 99 110 101 95 88 86 102 87 82 125 140 132 132 139 136 133 136 138
174 177 189 194 190 186 185 189 192 189 181 177 174 170 168 167 166 165 164 162 160 158 154 147 137 127 118 115 115 102 93 81 55 61 80 92 95 94 87 86 111 117 114 105 86 82 100 88 75 79 82 91 87 75 85 112 125 131 130 133 140 130 117
181 174 183 195 192 188 190 194 196 190 184 182 179 177 175 175 175 173 171 172 173 170 166 160 141 135 142 145 137 113 108 118 115 73 85 86 78 102 113 117 123 115 121 119 110 114 123 104 84 98 101 97 100 95 86 93 102 107 115 128 143 119 105
185 175 180 195 195 191 193 197 198 193 188 186 184 181 183 183 181 179 177 177 179 172 170 174 157 157 184 162 141 129 129 159 195 102 93 89 47 25 92 101 27 69 124 140 134 139 140 116 99 112 118 113 125 131 126 113 85 75 107 115 124 141 115
184 180 185 195 197 196 197 198 199 196 192 192 188 182 187 190 183 179 177 178 182 175 177 192 171 169 198 186 168 186 156 178 239 87 100 113 171 306 337 85 37 53 110 144 126 118 130 115 98 104 111 99 138 154 148 138 100 91 129 115 109 146 123
191 189 190 196 198 198 199 199 200 198 194 195 190 183 190 193 182 179 181 181 186 183 186 204 193 184 209 211 198 232 239 233 258 248 200 171 186 276 295 296 272 238 149 134 114 109 125 129 121 122 117 101 65 80 148 158 130 115 157 138 121 163 209
204 197 195 199 199 199 202 201 198 195 195 196 190 185 192 193 184 183 187 186 196 200 195 205 211 205 222 226 216 229 236 237 247 246 243 238 224 233 248 238 218 229 253 260 155 160 182 175 160 156 154 150 137 102 97 179 147 111 166 154 138 225 300
202 195 196 203 200 197 202 201 193 188 191 194 192 189 193 195 187 185 192 197 207 210 201 204 217 215 213 225 233 243 253 265 270 263 265 265 250 246 253 252 233 226 243 266 243 215 211 223 233 213 196 202 191 158 123 181 186 172 190 213 203 228 271
194 190 196 202 199 194 198 195 186 184 188 189 192 194 195 195 190 188 199 209 213 212 205 206 213 210 208 225 248 268 279 289 285 274 271 264 248 248 260 269 268 244 232 245 256 255 253 254 259 247 228 228 224 213 202 205 212 211 222 236 238 239 249
203 199 198 198 196 193 194 191 186 190 194 191 193 197 197 196 197 201 208 215 218 219 217 217 216 213 224 243 266 284 291 293 287 279 271 251 231 235 246 254 264 263 247 246 254 265 279 281 270 262 257 245 239 241 240 237 244 254 256 252 254 261 268
210 206 200 198 194 191 193 190 187 192 196 194 196 201 202 201 205 212 217 219 224 228 230 234 236 248 269 281 279 285 297 299 291 285 210 161 165 194 207 203 208 238 254 255 254 258 266 272 270 267 269 265 261 262 262 260 264 270 268 262 262 270 276
215 213 210 209 202 197 199 193 186 188 191 193 199 205 207 210 213 219 224 226 230 234 235 235 244 265 277 277 266 266 273 106 89 87 95 99 103 127 160 168 184 225 259 261 261 262 264 268 270 268 264 263 264 265 267 269 272 272 264 253 251 262 270
219 218 215 214 212 204 199 194 190 190 191 194 201 205 210 216 219 221 224 224 228 235 235 233 242 257 257 231 197 173 144 111 94 97 100 94 87 86 95 149 219 238 265 269 268 277 277 273 273 270 262 257 257 258 263 268 269 266 263 258 256 259 262
206 209 210 218 217 200 192 193 196 198 198 197 202 208 213 220 226 227 225 226 234 244 241 232 230 226 202 186 173 155 135 109 105 116 122 120 119 122 121 112 276 260 263 271 272 281 297 298 285 271 261 254 250 250 254 259 261 259 259 263 263 258 257
177 189 187 191 189 182 185 192 198 203 204 203 206 211 215 221 230 238 240 241 242 243 232 210 194 189 182 177 179 169 150 142 148 152 152 158 166 165 153 136 85 285 265 254 262 279 307 318 301 272 259 257 254 252 252 253 255 254 254 259 261 258 261
157 161 159 159 162 169 179 187 194 201 204 205 209 214 217 220 226 234 236 228 215 209 202 188 180 184 185 182 187 182 158 151 163 165 156 157 166 170 155 150 166 238 266 267 275 288 306 319 309 281 264 260 257 258 260 261 261 260 259 259 260 260 264
125 128 129 133 146 161 170 176 184 192 197 202 203 201 197 193 195 197 185 170 167 174 183 186 187 191 191 187 185 168 145 146 172 178 178 183 184 176 164 172 194 221 244 258 267 282 298 309 309 299 288 280 275 272 270 266 261 258 258 258 260 264 269
123 123 122 119 128 142 151 158 168 172 169 170 170 165 157 151 155 165 163 158 163 171 177 182 187 188 182 178 177 158 142 167 199 206 222 226 205 199 201 210 226 229 227 243 250 258 272 267 242 280 300 301 304 305 293 274 266 269 272 272 272 274 276
114 119 131 133 126 131 138 138 145 150 142 140 146 146 144 145 153 165 170 168 169 171 171 170 171 172 168 169 171 155 149 189 215 221 244 239 204 249 254 239 246 246 236 245 254 244 233 208 178 188 260 290 313 315 302 292 288 285 281 278 278 280 281
111 110 121 135 129 133 146 144 141 143 142 147 156 155 154 159 161 166 175 175 168 167 172 172 170 173 173 174 171 158 160 194 212 200 230 244 223 260 300 304 292 284 276 269 274 269 216 198 180 181 222 248 259 268 273 278 281 280 280 281 284 288 291
126 119 118 139 144 148 161 164 160 160 157 165 174 175 177 178 174 174 183 189 184 179 178 181 184 184 182 180 179 171 169 184 192 188 221 246 248 264 284 287 299 310 313 312 304 297 240 208 198 197 216 233 237 243 255 261 266 272 277 280 285 292 300
205 168 146 166 171 175 184 183 179 181 179 184 193 194 191 189 186 191 199 202 200 198 191 190 196 197 194 193 190 184 178 178 186 192 210 240 256 267 270 264 272 294 303 309 310 304 282 233 217 219 228 240 246 250 255 259 265 270 274 281 289 299 310
221 225 223 200 181 189 210 215 205 199 195 200 209 205 200 198 194 199 211 215 213 213 209 202 204 208 206 202 195 193 191 188 188 187 186 218 248 252 234 244 272 292 292 294 303 303 294 272 249 245 250 257 262 264 264 265 268 272 277 282 287 291 291
261 256 252 242 227 221 227 229 224 220 218 220 224 224 220 216 206 205 216 220 217 223 229 220 212 209 204 199 194 193 195 190 184 186 188 203 230 247 247 245 260 275 280 287 299 302 295 285 278 275 274 276 279 281 280 278 278 280 282 281 279 282 288
285 280 273 264 256 248 243 241 237 236 237 235 234 236 235 229 224 223 225 221 217 225 233 228 215 205 197 193 189 185 183 181 180 189 202 213 225 245 259 254 253 260 269 281 292 296 294 289 284 283 285 286 289 292 295 297 301 298 284 280 286 292 288
Height
1521 1523 1525 1526 1528 1529 1531 1532 1532 1533 1533 1533 1533 1533 1534 1535 1535 1536 1537 1539 1540 1540 1540 1540 1540 1540 1540 1541 1541 1541 1541 1541 1541 1541 1542 1542 1543 1543 1543 1544 1545 1545 1546 1546 1547 1549 1550 1552 1554 1555 1555 1555 1556 1557 1556 1557 1557 1556 1557 1558 1558 1558 1557
1520 1522 1524 1525 1527 1529 1530 1531 1532 1532 1532 1532 1532 1533 1534 1534 1535 1536 1537 1538 1540 1540 1540 1540 1540 1540 1541 1541 1541 1541 1541 1541 1541 1542 1542 1543 1543 1544 1544 1544 1545 1546 1546 1546 1547 1549 1549 1551 1553 1555 1556 1556 1557 1558 1558 1558 1558 1558 1558 1559 1559 1558 1557
1519 1521 1522 1524 1526 1528 1529 1530 1530 1530 1531 1531 1532 1533 1533 1534 1535 1535 1537 1538 1539 1540 1540 1541 1541 1541 1541 1541 1541 1541 1541 1541 1542 1542 1543 1543 1544 1544 1544 1545 1546 1546 1546 1546 1547 1548 1549 1551 1553 1555 1556 1557 1557 1559 1560 1560 1560 1560 1559 1559 1559 1559 1559
1518 1520 1521 1523 1525 1527 1528 1529 1530 1530 1531 1531 1531 1532 1533 1533 1534 1535 1536 1537 1538 1539 1540 1541 1541 1541 1541 1541 1541 1541 1541 1541 1541 1542 1542 1543 1544 1544 1545 1545 1546 1546 1546 1546 1546 1547 1548 1550 1552 1555 1557 1558 1558 1559 1560 1561 1561 1561 1561 1561 1561 1561 1560
1517 1518 1520 1522 1524 1526 1528 1529 1529 1530 1531 1531 1531 1532 1533 1533 1534 1535 1535 1536 1537 1538 1540 1541 1541 1541 1541 1541 1541 1541 1541 1541 1541 1542 1542 1543 1543 1544 1544 1545 1545 1546 1546 1546 1546 1547 1548 1549 1551 1554 1556 1558 1559 1559 1561 1562 1563 1563 1563 1563 1563 1562 1562
1516 1517 1519 1521 1523 1525 1527 1528 1528 1530 1530 1531 1531 1532 1532 1533 1534 1534 1535 1536 1537 1538 1539 1540 1541 1541 1541 1541 1541 1541 1541 1541 1541 1542 1542 1542 1543 1543 1544 1544 1545 1545 1546 1547 1547 1548 1549 1549 1551 1553 1555 1557 1558 1559 1562 1564 1565 1566 1565 1565 1565 1564 1564
1515 1517 1519 1521 1523 1525 1527 1528 1528 1529 1530 1530 1531 1531 1532 1533 1533 1534 1535 1536 1537 1537 1538 1539 1540 1541 1541 1541 1541 1541 1541 1542 1542 1542 1542 1543 1543 1543 1544 1544 1544 1545 1546 1548 1549 1549 1550 1551 1552 1553 1554 1556 1557 1559 1562 1564 1565 1566 1566 1567 1566 1565 1565
1515 1517 1519 1521 1523 1524 1526 1527 1528 1528 1529 1530 1530 1531 1532 1533 1534 1535 1535 1536 1537 1537 1538 1539 1539 1540 1540 1541 1541 1542 1542 1542 1543 1543 1543 1543 1544 1544 1544 1545 1545 1545 1546 1547 1548 1549 1550 1552 1553 1553 1554 1555 1557 1559 1561 1563 1565 1566 1567 1567 1567 1566 1566
1515 1517 1519 1521 1523 1524 1525 1526 1528 1528 1529 1529 1530 1531 1532 1533 1534 1535 1536 1537 1537 1538 1538 1539 1540 1540 1541 1541 1541 1542 1543 1543 1544 1544 1544 1544 1545 1546 1546 1546 1546 1547 1547 1547 1548 1549 1550 1552 1553 1554 1554 1555 1556 1558 1560 1562 1564 1566 1566 1567 1567 1567 1566
1515 1517 1519 1521 1523 1524 1525 1526 1527 1528 1528 1529 1530 1531 1532 1533 1534 1535 1536 1537 1538 1538 1539 1540 1540 1541 1541 1542 1542 1543 1544 1544 1545 1545 1546 1546 1546 1547 1547 1548 1548 1548 1548 1549 1549 1550 1551 1552 1553 1554 1555 1555 1555 1556 1558 1561 1564 1565 1566 1567 1567 1567 1567
1516 1518 1519 1521 1522 1524 1525 1526 1527 1527 1528 1529 1530 1531 1532 1533 1535 1536 1537 1538 1538 1539 1540 1540 1541 1541 1542 1543 1544 1544 1545 1546 1546 1547 1547 1548 1548 1549 1549 1549 1549 1550 1550 1550 1551 1551 1552 1552 1553 1554 1554 1555 1555 1555 1556 1559 1562 1565 1566 1567 1567 1567 1568
1516 1517 1519 1520 1522 1524 1525 1525 1526 1527 1528 1529 1530 1531 1532 1534 1535 1536 1538 1538 1539 1540 1541 1541 1542 1542 1543 1544 1544 1545 1546 1547 1548 1548 1549 1549 1550 1550 1550 1551 1551 1551 1552 1552 1552 1553 1553 1553 1554 1554 1555 1555 1556 1557 1557 1558 1561 1564 1566 1567 1567 1568 1569
1515 1517 1518 1520 1522 1524 1525 1525 1526 1527 1528 1529 1530 1531 1533 1534 1536 1537 1538 1539 1540 1541 1541 1542 1543 1543 1544 1545 1545 1546 1547 1548 1548 1549 1549 1550 1550 1551 1551 1551 1552 1552 1552 1553 1553 1554 1554 1554 1555 1555 1556 1556 1557 1558 1558 1559 1561 1563 1565 1566 1567 1568 1569
1515 1516 1518 1521 1523 1524 1525 1525 1526 1527 1528 1529 1530 1531 1533 1535 1536 1538 1539 1540 1541 1542 1542 1543 1543 1544 1545 1545 1546 1547 1548 1549 1549 1549 1550 1550 1550 1551 1551 1551 1552 1552 1552 1553 1553 1554 1555 1555 1556 1557 1557 1558 1558 1559 1560 1560 1561 1563 1565 1566 1567 1568 1568
1515 1516 1518 1522 1524 1525 1525 1525 1525 1527 1528 1529 1531 1532 1533 1535 1537 1538 1539 1541 1541 1542 1543 1543 1544 1545 1545 1546 1547 1547 1548 1549 1549 1549 1550 1550 1551 1551 1551 1551 1551 1552 1552 1553 1553 1554 1555 1555 1556 1557 1558 1558 1559 1560 1561 1561 1562 1562 1563 1565 1566 1567 1568
1515 1516 1519 1523 1524 1525 1525 1525 1525 1527 1528 1529 1531 1533 1534 1536 1537 1539 1540 1541 1542 1543 1544 1544 1545 1545 1546 1547 1547 1548 1549 1549 1549 1549 1550 1551 1551 1552 1552 1552 1552 1552 1553 1553 1553 1554 1554 1555 1555 1556 1557 1558 1559 1560 1560 1561 1562 1562 1563 1564 1565 1566 1567
1515 1516 1520 1523 1524 1525 1525 1524 1525 1526 1528 1529 1531 1534 1535 1537 1538 1539 1541 1542 1543 1543 1544 1544 1545 1546 1546 1547 1548 1549 1549 1550 1550 1550 1551 1552 1553 1553 1553 1553 1553 1553 1553 1553 1553 1554 1555 1555 1556 1557 1558 1558 1558 1559 1560 1560 1561 1562 1563 1564 1565 1566 1566
1516 1517 1520 1523 1524 1524 1524 1524 1525 1526 1528 1530 1532 1534 1537 1538 1539 1540 1541 1542 1543 1544 1544 1545 1545 1546 1547 1548 1549 1550 1550 1550 1550 1551 1551 1552 1553 1554 1554 1554 1554 1554 1553 1554 1554 1554 1555 1555 1556 1557 1558 1558 1558 1559 1559 1560 1560 1561 1562 1563 1564 1564 1565
1516 1519 1521 1523 1524 1524 1524 1524 1525 1527 1529 1530 1532 1535 1538 1539 1540 1541 1542 1543 1544 1544 1545 1545 1546 1547 1548 1548 1549 1549 1549 1549 1550 1550 1551 1552 1552 1553 1554 1555 1555 1554 1554 1554 1554 1554 1555 1555 1556 1556 1557 1557 1558 1558 1559 1560 1560 1561 1561 1562 1562 1563 1563
1515 1518 1521 1522 1524 1525 1526 1526 1527 1528 1530 1532 1534 1536 1538 1540 1541 1542 1544 1544 1544 1544 1544 1545 1546 1547 1548 1548 1547 1548 1548 1549 1550 1550 1551 1551 1552 1553 1554 1554 1555 1554 1554 1554 1554 1554 1554 1555 1555 1556 1557 1557 1557 1557 1558 1559 1559 1559 1560 1560 1561 1562 1562
1514 1516 1518 1520 1522 1523 1525 1527 1529 1530 1532 1533 1535 1537 1538 1540 1541 1542 1542 1542 1541 1542 1543 1544 1545 1545 1546 1547 1547 1548 1548 1549 1548 1548 1549 1549 1549 1551 1553 1554 1554 1553 1553 1554 1554 1554 1554 1554 1555 1555 1556 1556 1557 1557 1557 1557 1558 1558 1559 1559 1560 1560 1561
1512 1514 1515 1517 1519 1522 1525 1528 1530 1531 1532 1533 1535 1537 1538 1540 1540 1540 1540 1539 1540 1542 1542 1543 1544 1545 1545 1547 1548 1548 1548 1547 1546 1546 1546 1547 1548 1549 1551 1553 1553 1553 1553 1554 1554 1554 1554 1554 1555 1555 1555 1555 1556 1556 1556 1557 1557 1558 1558 1558 1559 1559 1560
1512 1513 1513 1514 1517 1521 1523 1526 1529 1530 1531 1533 1535 1536 1537 1538 1539 1539 1539 1539 1541 1541 1541 1543 1545 1545 1545 1546 1547 1547 1547 1546 1545 1544 1545 1546 1547 1548 1549 1551 1552 1552 1553 1553 1553 1553 1553 1554 1554 1554 1554 1555 1555 1555 1556 1556 1557 1557 1557 1558 1558 1558 1558
1512 1513 1513 1514 1517 1519 1520 1523 1525 1528 1529 1531 1533 1534 1536 1537 1537 1537 1538 1539 1540 1540 1540 1542 1543 1544 1545 1545 1546 1546 1547 1546 1545 1545 1545 1546 1547 1547 1548 1550 1551 1551 1552 1552 1552 1552 1552 1552 1553 1553 1554 1554 1554 1554 1554 1555 1556 1556 1556 1556 1557 1556 1556
1512 1513 1514 1515 1516 1518 1520 1522 1524 1526 1527 1529 1531 1532 1533 1534 1535 1536 1537 1538 1539 1539 1540 1541 1542 1542 1543 1544 1545 1546 1546 1546 1546 1546 1546 1546 1547 1547 1548 1549 1550 1550 1551 1551 1551 1551 1551 1551 1551 1552 1552 1553 1553 1553 1554 1554 1555 1555 1555 1555 1555 1555 1555
1514 1514 1516 1516 1517 1520 1521 1522 1524 1525 1526 1528 1529 1530 1531 1532 1533 1534 1536 1537 1538 1538 1538 1539 1540 1541 1542 1543 1544 1545 1545 1546 1546 1546 1546 1547 1547 1548 1549 1549 1549 1550 1550 1550 1550 1550 1550 1550 1550 1551 1551 1551 1552 1552 1552 1553 1553 1553 1554 1554 1554 1554 1553
1515 1515 1516 1518 1519 1520 1521 1521 1523 1524 1525 1527 1527 1528 1530 1532 1532 1533 1534 1535 1536 1536 1536 1537 1539 1540 1541 1542 1544 1544 1545 1545 1545 1545 1546 1546 1547 1547 1549 1549 1549 1549 1549 1549 1549 1549 1550 1550 1550 1550 1550 1550 1550 1550 1551 1551 1551 1552 1552 1552 1552 1552 1552
1516 1516 1517 1517 1518 1519 1520 1521 1521 1522 1524 1525 1526 1528 1529 1530 1531 1531 1532 1533 1534 1534 1534 1536 1537 1538 1540 1541 1543 1543 1544 1544 1544 1544 1544 1545 1545 1546 1547 1548 1548 1548 1549 1549 1549 1549 1549 1550 1549 1549 1549 1549 1549 1549 1549 1549 1550 1550 1550 1551 1551 1551 1551
1517 1517 1517 1517 1517 1519 1520 1520 1521 1522 1523 1525 1526 1527 1528 1529 1529 1530 1530 1531 1532 1533 1534 1535 1535 1537 1539 1540 1541 1542 1543 1543 1543 1542 1543 1544 1545 1546 1546 1547 1547 1548 1549 1549 1549 1549 1549 1549 1549 1548 1548 1547 1547 1548 1548 1548 1548 1548 1549 1549 1549 1549 1549
1516 1516 1516 1517 1517 1518 1519 1520 1521 1522 1523 1525 1526 1527 1527 1528 1528 1529 1529 1531 1531 1532 1533 1534 1535 1536 1538 1539 1540 1541 1542 1542 1542 1541 1542 1544 1545 1545 1546 1546 1547 1548 1549 1549 1549 1549 1549 1549 1548 1548 1547 1547 1546 1547 1547 1547 1547 1547 1547 1547 1548 1548 1548
1516 1515 1515 1516 1517 1518 1519 1520 1521 1522 1523 1525 1526 1527 1528 1528 1528 1528 1529 1530 1531 1532 1533 1533 1534 1535 1537 1538 1539 1540 1540 1541 1541 1541 1542 1543 1545 1545 1546 1546 1546 1547 1548 1548 1548 1548 1548 1548 1548 1548 1547 1547 1547 1546 1546 1546 1547 1546 1546 1546 1546 1546 1546
1515 1515 1516 1517 1517 1519 1520 1520 1521 1521 1523 1525 1526 1527 1528 1529 1529 1529 1529 1529 1530 1531 1532 1533 1534 1535 1536 1537 1538 1538 1539 1539 1540 1540 1540 1541 1543 1544 1545 1546 1546 1546 1546 1546 1546 1546 1546 1547 1547 1547 1547 1547 1547 1546 1546 1545 1545 1544 1544 1544 1544 1545 1545
1516 1516 1517 1517 1518 1520 1520 1521 1521 1522 1522 1524 1525 1527 1528 1528 1528 1528 1529 1529 1530 1530 1531 1532 1533 1534 1535 1535 1536 1537 1537 1538 1539 1539 1539 1539 1540 1542 1543 1544 1544 1544 1544 1544 1545 1545 1545 1545 1545 1545 1545 1545 1546 1545 1545 1544 1544 1543 1542 1542 1543 1543 1543
1516 1516 1517 1517 1518 1520 1520 1521 1521 1522 1522 1523 1524 1525 1527 1527 1526 1527 1527 1528 1528 1529 1530 1531 1531 1532 1533 1534 1535 1535 1536 1536 1537 1538 1538 1537 1537 1538 1540 1541 1541 1542 1542 1543 1543 1544 1544 1544 1544 1544 1544 1544 1544 1544 1543 1543 1542 1542 1541 1541 1541 1542 1542
1515 1515 1515 1515 1517 1518 1519 1520 1521 1521 1521 1522 1523 1524 1525 1526 1526 1526 1526 1527 1527 1527 1528 1529 1530 1531 1531 1532 1533 1533 1534 1535 1535 1536 1538 1536 1535 1535 1538 1539 1539 1540 1540 1540 1541 1542 1542 1542 1542 1543 1543 1543 1542 1542 1542 1541 1541 1541 1540 1540 1540 1540 1540
1514 1514 1514 1514 1515 1516 1517 1518 1519 1519 1520 1520 1521 1522 1523 1524 1525 1525 1525 1525 1525 1525 1526 1527 1528 1529 1530 1530 1531 1532 1532 1533 1534 1535 1535 1535 1534 1535 1536 1536 1537 1538 1539 1539 1539 1539 1540 1540 1540 1540 1540 1540 1540 1540 1539 1539 1539 1539 1538 1538 1539 1539 1539
1515 1514 1514 1514 1515 1515 1516 1517 1517 1517 1518 1519 1519 1520 1521 1522 1523 1524 1524 1525 1524 1522 1524 1525 1526 1527 1528 1528 1529 1530 1531 1532 1533 1533 1533 1533 1533 1534 1535 1535 1536 1537 1537 1538 1538 1538 1538 1538 1538 1538 1538 1538 1538 1537 1537 1537 1537 1537 1537 1538 1538 1538 1538